DAL1017 KRDU-KLGA

Flight info

Callsign DAL1017
Flight time 0h 59m
Altitude 27000
Route BEXGO5 BOUSY GEARS Q87 HURTS PROUD2
Aircraft A321/M-SDE3FGHIRWY/LB1

Departure

Time 2026-05-07 03:48
Airport Raleigh-Durham International Airport (KRDU)

Arrival

Time 2026-05-07 04:47
Airport LaGuardia Airport (KLGA)
Time Latitude Longitude Altitude Speed Heading
2026-05-07 02:43 35.87814 -78.79353 423 ft 0 kts 134°
2026-05-07 03:16 35.87814 -78.79354 423 ft 0 kts 134°
2026-05-07 03:31 35.87825 -78.79368 411 ft 4 kts 131°
2026-05-07 03:32 35.87839 -78.79389 412 ft 4 kts 106°
2026-05-07 03:32 35.87837 -78.79417 414 ft 4 kts 56°
2026-05-07 03:32 35.87827 -78.79432 415 ft 1 kts 45°
2026-05-07 03:32 35.87826 -78.79434 416 ft 2 kts 45°
2026-05-07 03:38 35.87839 -78.79417 415 ft 7 kts 45°
2026-05-07 03:38 35.87871 -78.79378 426 ft 6 kts 45°
2026-05-07 03:38 35.87899 -78.79347 418 ft 6 kts 30°
2026-05-07 03:38 35.87949 -78.79356 420 ft 7 kts 350°
2026-05-07 03:39 35.87993 -78.79330 423 ft 15 kts 40°
2026-05-07 03:39 35.88111 -78.79184 415 ft 25 kts 45°
2026-05-07 03:39 35.88218 -78.79052 421 ft 19 kts 45°
2026-05-07 03:39 35.88307 -78.78941 419 ft 17 kts 44°
2026-05-07 03:40 35.88389 -78.78841 412 ft 16 kts 45°
2026-05-07 03:40 35.88464 -78.78749 414 ft 14 kts 45°
2026-05-07 03:40 35.88522 -78.78677 418 ft 10 kts 45°
2026-05-07 03:40 35.88590 -78.78593 420 ft 17 kts 45°
2026-05-07 03:41 35.88682 -78.78480 421 ft 20 kts 45°
2026-05-07 03:41 35.88785 -78.78352 417 ft 23 kts 46°
2026-05-07 03:41 35.88904 -78.78204 416 ft 20 kts 46°
2026-05-07 03:41 35.88998 -78.78089 421 ft 21 kts 46°
2026-05-07 03:42 35.89100 -78.77960 416 ft 18 kts 43°
2026-05-07 03:42 35.89190 -78.77853 415 ft 15 kts 43°
2026-05-07 03:42 35.89246 -78.77814 423 ft 4 kts 348°
2026-05-07 03:42 35.89251 -78.77818 426 ft 0 kts 330°
2026-05-07 03:45 35.89253 -78.77820 426 ft 3 kts 330°
2026-05-07 03:45 35.89294 -78.77881 418 ft 10 kts 283°
2026-05-07 03:46 35.89262 -78.77949 418 ft 8 kts 225°
2026-05-07 03:46 35.89258 -78.77955 422 ft 0 kts 225°
2026-05-07 03:47 35.89227 -78.77993 425 ft 30 kts 225°
2026-05-07 03:47 35.88857 -78.78449 426 ft 116 kts 225°
2026-05-07 03:47 35.88133 -78.79343 456 ft 176 kts 224°
2026-05-07 03:48 35.87256 -78.80418 1299 ft 176 kts 224°
2026-05-07 03:48 35.86400 -78.81473 2342 ft 170 kts 225°
2026-05-07 03:48 35.85594 -78.82470 2943 ft 166 kts 226°
2026-05-07 03:48 35.84963 -78.83701 3133 ft 181 kts 255°
2026-05-07 03:49 35.85044 -78.85253 3703 ft 181 kts 280°
2026-05-07 03:49 35.85570 -78.86686 4128 ft 196 kts 300°
2026-05-07 03:49 35.86792 -78.87693 4244 ft 235 kts 337°
2026-05-07 03:49 35.88543 -78.87645 4333 ft 274 kts 13°
2026-05-07 03:50 35.90259 -78.86319 4546 ft 307 kts 47°
2026-05-07 03:50 35.91427 -78.84082 5257 ft 311 kts 58°
2026-05-07 03:50 35.92522 -78.81811 5824 ft 314 kts 57°
2026-05-07 03:50 35.93648 -78.79501 5971 ft 314 kts 57°
2026-05-07 03:51 35.94776 -78.77195 6005 ft 313 kts 57°
2026-05-07 03:51 35.95904 -78.74890 5975 ft 312 kts 57°
2026-05-07 03:51 35.97024 -78.72598 5991 ft 312 kts 57°
2026-05-07 03:51 35.98189 -78.70316 5983 ft 312 kts 49°
2026-05-07 03:52 35.99790 -78.68582 5998 ft 304 kts 28°
2026-05-07 03:52 36.01504 -78.67087 5987 ft 305 kts 32°
2026-05-07 03:52 36.03175 -78.65446 6147 ft 310 kts 34°
2026-05-07 03:52 36.04830 -78.63743 6955 ft 309 kts 35°
2026-05-07 03:53 36.06487 -78.62032 7677 ft 311 kts 35°
2026-05-07 03:53 36.08168 -78.60319 8372 ft 314 kts 34°
2026-05-07 03:53 36.09877 -78.58606 9089 ft 317 kts 34°
2026-05-07 03:53 36.11583 -78.56912 9760 ft 320 kts 34°
2026-05-07 03:54 36.13345 -78.55173 10237 ft 331 kts 34°
2026-05-07 03:54 36.15212 -78.53343 10353 ft 353 kts 34°
2026-05-07 03:54 36.17202 -78.51394 10480 ft 374 kts 34°
2026-05-07 03:54 36.19249 -78.49380 10847 ft 384 kts 35°
2026-05-07 03:55 36.21355 -78.47294 11367 ft 391 kts 35°
2026-05-07 03:55 36.23480 -78.45158 11934 ft 395 kts 35°
2026-05-07 03:55 36.25634 -78.43005 12512 ft 399 kts 35°
2026-05-07 03:55 36.27836 -78.40860 13088 ft 403 kts 34°
2026-05-07 03:56 36.30083 -78.38736 13661 ft 407 kts 33°
2026-05-07 03:56 36.32332 -78.36648 14170 ft 411 kts 32°
2026-05-07 03:56 36.34641 -78.34521 14697 ft 414 kts 32°
2026-05-07 03:56 36.36968 -78.32380 15223 ft 417 kts 32°
2026-05-07 03:57 36.39306 -78.30220 15753 ft 420 kts 32°
2026-05-07 03:57 36.41629 -78.28062 16290 ft 423 kts 31°
2026-05-07 03:57 36.43998 -78.25853 16785 ft 427 kts 31°
2026-05-07 03:57 36.46380 -78.23622 17282 ft 430 kts 31°
2026-05-07 03:58 36.48783 -78.21371 17785 ft 433 kts 30°
2026-05-07 03:58 36.51201 -78.19107 18271 ft 436 kts 30°
2026-05-07 03:58 36.53606 -78.16848 18680 ft 439 kts 30°
2026-05-07 03:58 36.56055 -78.14542 19112 ft 441 kts 30°
2026-05-07 03:59 36.58515 -78.12222 19589 ft 444 kts 30°
2026-05-07 03:59 36.60963 -78.09906 20001 ft 446 kts 30°
2026-05-07 03:59 36.63447 -78.07554 20427 ft 449 kts 30°
2026-05-07 03:59 36.65941 -78.05189 20895 ft 450 kts 30°
2026-05-07 04:00 36.68453 -78.02807 21314 ft 453 kts 30°
2026-05-07 04:00 36.70943 -78.00448 21713 ft 455 kts 30°
2026-05-07 04:00 36.73477 -77.98045 22094 ft 458 kts 30°
2026-05-07 04:00 36.76023 -77.95630 22463 ft 461 kts 31°
2026-05-07 04:01 36.78584 -77.93200 22883 ft 463 kts 31°
2026-05-07 04:01 36.81081 -77.90624 23265 ft 471 kts 38°
2026-05-07 04:01 36.83278 -77.87522 23625 ft 480 kts 49°
2026-05-07 04:01 36.85176 -77.84134 23935 ft 484 kts 51°
2026-05-07 04:02 36.87105 -77.80656 24251 ft 486 kts 51°
2026-05-07 04:02 36.89047 -77.77163 24550 ft 489 kts 51°
2026-05-07 04:02 36.91000 -77.73659 24830 ft 492 kts 51°
2026-05-07 04:02 36.92958 -77.70149 25110 ft 495 kts 51°
2026-05-07 04:03 36.94939 -77.66598 25383 ft 498 kts 51°
2026-05-07 04:03 36.96902 -77.63069 25652 ft 501 kts 51°
2026-05-07 04:03 36.98894 -77.59479 25920 ft 504 kts 51°
2026-05-07 04:03 37.00897 -77.55867 26167 ft 507 kts 51°
2026-05-07 04:04 37.02919 -77.52221 26429 ft 510 kts 51°
2026-05-07 04:04 37.04945 -77.48567 26695 ft 512 kts 51°
2026-05-07 04:04 37.06984 -77.44880 26914 ft 516 kts 51°
2026-05-07 04:04 37.09011 -77.41209 26945 ft 510 kts 50°
2026-05-07 04:05 37.11200 -77.37852 26943 ft 502 kts 40°
2026-05-07 04:05 37.13691 -77.34804 26945 ft 498 kts 38°
2026-05-07 04:05 37.16201 -77.31790 26945 ft 498 kts 38°
2026-05-07 04:05 37.18729 -77.28759 26949 ft 508 kts 38°
2026-05-07 04:06 37.21314 -77.25660 26950 ft 517 kts 38°
2026-05-07 04:06 37.23937 -77.22506 26927 ft 526 kts 38°
2026-05-07 04:06 37.26561 -77.19341 26970 ft 534 kts 38°
2026-05-07 04:06 37.29259 -77.16075 26925 ft 540 kts 38°
2026-05-07 04:07 37.31970 -77.12784 26930 ft 542 kts 38°
2026-05-07 04:07 37.34686 -77.09481 26928 ft 543 kts 38°
2026-05-07 04:07 37.37409 -77.06167 26928 ft 546 kts 38°
2026-05-07 04:07 37.40111 -77.02879 26927 ft 548 kts 38°
2026-05-07 04:08 37.42866 -76.99524 26925 ft 549 kts 38°
2026-05-07 04:08 37.45693 -76.96322 26922 ft 543 kts 31°
2026-05-07 04:08 37.48814 -76.93732 26928 ft 533 kts 21°
2026-05-07 04:08 37.52093 -76.91556 26923 ft 532 kts 20°
2026-05-07 04:09 37.55372 -76.89388 26921 ft 532 kts 20°
2026-05-07 04:09 37.58660 -76.87208 26924 ft 533 kts 20°
2026-05-07 04:09 37.61901 -76.85054 26906 ft 532 kts 20°
2026-05-07 04:09 37.65179 -76.82865 26912 ft 532 kts 20°
2026-05-07 04:10 37.68458 -76.80673 26915 ft 532 kts 20°
2026-05-07 04:10 37.71738 -76.78482 26913 ft 532 kts 20°
2026-05-07 04:10 37.75009 -76.76295 26913 ft 531 kts 20°
2026-05-07 04:10 37.78239 -76.74131 26910 ft 532 kts 20°
2026-05-07 04:11 37.81548 -76.71915 26911 ft 531 kts 20°
2026-05-07 04:11 37.84784 -76.69750 26913 ft 532 kts 20°
2026-05-07 04:11 37.88054 -76.67564 26912 ft 531 kts 20°
2026-05-07 04:11 37.91349 -76.65409 26932 ft 531 kts 19°
2026-05-07 04:12 37.94614 -76.63329 26927 ft 531 kts 18°
2026-05-07 04:12 37.97932 -76.61248 26919 ft 530 kts 18°
2026-05-07 04:12 38.01248 -76.59185 26913 ft 531 kts 18°
2026-05-07 04:12 38.04562 -76.57118 26911 ft 531 kts 18°
2026-05-07 04:13 38.07875 -76.55038 26909 ft 531 kts 18°
2026-05-07 04:13 38.11189 -76.52943 26907 ft 531 kts 18°
2026-05-07 04:13 38.14466 -76.50856 26935 ft 532 kts 18°
2026-05-07 04:13 38.17813 -76.48710 26913 ft 532 kts 18°
2026-05-07 04:14 38.21076 -76.46614 26913 ft 532 kts 18°
2026-05-07 04:14 38.24387 -76.44488 26914 ft 532 kts 18°
2026-05-07 04:14 38.27691 -76.42357 26913 ft 533 kts 20°
2026-05-07 04:14 38.30862 -76.39799 26899 ft 544 kts 30°
2026-05-07 04:15 38.33844 -76.36908 26928 ft 545 kts 30°
2026-05-07 04:15 38.36865 -76.33966 26909 ft 546 kts 30°
2026-05-07 04:15 38.39877 -76.31022 26911 ft 546 kts 30°
2026-05-07 04:15 38.42893 -76.28067 26905 ft 546 kts 30°
2026-05-07 04:16 38.45911 -76.25106 26906 ft 546 kts 30°
2026-05-07 04:16 38.48930 -76.22142 26904 ft 547 kts 30°
2026-05-07 04:16 38.51952 -76.19173 26901 ft 547 kts 30°
2026-05-07 04:16 38.54928 -76.16246 26927 ft 548 kts 30°
2026-05-07 04:17 38.57953 -76.13270 26881 ft 548 kts 30°
2026-05-07 04:17 38.60986 -76.10282 26884 ft 549 kts 30°
2026-05-07 04:17 38.64016 -76.07306 26887 ft 548 kts 30°
2026-05-07 04:17 38.67070 -76.04378 26888 ft 548 kts 29°
2026-05-07 04:18 38.70147 -76.01505 26882 ft 547 kts 28°
2026-05-07 04:18 38.73244 -75.98655 26925 ft 547 kts 28°
2026-05-07 04:18 38.76303 -75.95853 26910 ft 548 kts 27°
2026-05-07 04:18 38.79409 -75.92997 26899 ft 549 kts 27°
2026-05-07 04:19 38.82512 -75.90115 26891 ft 550 kts 28°
2026-05-07 04:19 38.85599 -75.87220 26877 ft 550 kts 28°
2026-05-07 04:19 38.88685 -75.84305 26879 ft 551 kts 28°
2026-05-07 04:19 38.91777 -75.81379 26889 ft 551 kts 28°
2026-05-07 04:20 38.94864 -75.78459 26911 ft 552 kts 27°
2026-05-07 04:20 38.97920 -75.75571 26878 ft 552 kts 28°
2026-05-07 04:20 39.01028 -75.72633 26873 ft 553 kts 28°
2026-05-07 04:21 39.07243 -75.66760 26863 ft 554 kts 28°
2026-05-07 04:21 39.10351 -75.63812 26857 ft 554 kts 28°
2026-05-07 04:21 39.13419 -75.60900 26893 ft 554 kts 28°
2026-05-07 04:21 39.16527 -75.57943 26887 ft 554 kts 28°
2026-05-07 04:22 39.19638 -75.54981 26877 ft 555 kts 28°
2026-05-07 04:22 39.22744 -75.52016 26877 ft 555 kts 28°
2026-05-07 04:22 39.25866 -75.49080 26877 ft 554 kts 27°
2026-05-07 04:22 39.29013 -75.46227 26880 ft 552 kts 26°
2026-05-07 04:23 39.32151 -75.43465 26884 ft 551 kts 25°
2026-05-07 04:23 39.35340 -75.40704 26916 ft 551 kts 25°
2026-05-07 04:23 39.38532 -75.37947 26929 ft 551 kts 25°
2026-05-07 04:23 39.41719 -75.35168 26914 ft 552 kts 25°
2026-05-07 04:24 39.44888 -75.32368 26909 ft 552 kts 26°
2026-05-07 04:24 39.48060 -75.29534 26909 ft 553 kts 26°
2026-05-07 04:24 39.51234 -75.26677 26907 ft 553 kts 26°
2026-05-07 04:24 39.53318 -75.24775 26942 ft 554 kts 27°
2026-05-07 04:25 39.57468 -75.20909 26915 ft 555 kts 28°
2026-05-07 04:25 39.60596 -75.17941 26907 ft 556 kts 28°
2026-05-07 04:25 39.62704 -75.15929 26905 ft 556 kts 28°
2026-05-07 04:25 39.66832 -75.11995 26899 ft 556 kts 28°
2026-05-07 04:26 39.69973 -75.09071 26899 ft 555 kts 26°
2026-05-07 04:26 39.72088 -75.07186 26898 ft 553 kts 25°
2026-05-07 04:26 39.75293 -75.04427 26861 ft 552 kts 24°
2026-05-07 04:26 39.78523 -75.01720 26873 ft 551 kts 24°
2026-05-07 04:27 39.81759 -74.99026 26877 ft 551 kts 24°
2026-05-07 04:27 39.84968 -74.96331 26884 ft 544 kts 24°
2026-05-07 04:27 39.88004 -74.93690 26512 ft 519 kts 25°
2026-05-07 04:27 39.90929 -74.91033 25513 ft 507 kts 27°
2026-05-07 04:28 39.93500 -74.87909 25048 ft 497 kts 43°
2026-05-07 04:28 39.95692 -74.84598 24844 ft 468 kts 41°
2026-05-07 04:28 39.97814 -74.81497 24337 ft 452 kts 40°
2026-05-07 04:28 39.99918 -74.78517 23735 ft 442 kts 39°
2026-05-07 04:29 40.02000 -74.75615 22919 ft 436 kts 39°
2026-05-07 04:29 40.04057 -74.72749 22010 ft 430 kts 40°
2026-05-07 04:29 40.06059 -74.69931 21153 ft 425 kts 41°
2026-05-07 04:29 40.08045 -74.67101 20325 ft 419 kts 41°
2026-05-07 04:30 40.09995 -74.64295 19506 ft 414 kts 42°
2026-05-07 04:30 40.11913 -74.61527 18736 ft 408 kts 42°
2026-05-07 04:30 40.13812 -74.58787 17915 ft 402 kts 43°
2026-05-07 04:30 40.15676 -74.56094 17018 ft 397 kts 43°
2026-05-07 04:31 40.17519 -74.53429 16150 ft 392 kts 44°
2026-05-07 04:31 40.19342 -74.50796 15304 ft 388 kts 44°
2026-05-07 04:31 40.21149 -74.48242 14490 ft 383 kts 43°
2026-05-07 04:31 40.23022 -74.45781 13690 ft 379 kts 41°
2026-05-07 04:32 40.24923 -74.43404 12800 ft 375 kts 40°
2026-05-07 04:32 40.26814 -74.41080 11934 ft 371 kts 40°
2026-05-07 04:32 40.28684 -74.38779 11120 ft 367 kts 40°
2026-05-07 04:32 40.30531 -74.36487 10289 ft 364 kts 40°
2026-05-07 04:33 40.32357 -74.34200 9445 ft 360 kts 40°
2026-05-07 04:33 40.34129 -74.31967 8631 ft 355 kts 41°
2026-05-07 04:33 40.35863 -74.29764 8279 ft 335 kts 41°
2026-05-07 04:33 40.37512 -74.27657 8223 ft 327 kts 41°
2026-05-07 04:34 40.39147 -74.25575 8239 ft 327 kts 40°
2026-05-07 04:34 40.40765 -74.23520 8248 ft 329 kts 41°
2026-05-07 04:34 40.42420 -74.21422 8193 ft 328 kts 41°
2026-05-07 04:34 40.44069 -74.19335 7828 ft 329 kts 41°
2026-05-07 04:35 40.45721 -74.17244 7387 ft 329 kts 41°
2026-05-07 04:35 40.47368 -74.15149 6971 ft 330 kts 40°
2026-05-07 04:35 40.49000 -74.13069 6695 ft 324 kts 40°
2026-05-07 04:35 40.50595 -74.11030 6381 ft 320 kts 40°
2026-05-07 04:36 40.52245 -74.09102 6136 ft 311 kts 30°
2026-05-07 04:36 40.54045 -74.07561 6028 ft 307 kts 27°
2026-05-07 04:36 40.55839 -74.06045 6035 ft 307 kts 27°
2026-05-07 04:36 40.57640 -74.04516 6039 ft 308 kts 27°
2026-05-07 04:37 40.59436 -74.02988 6039 ft 306 kts 27°
2026-05-07 04:37 40.61202 -74.01490 6036 ft 306 kts 27°
2026-05-07 04:37 40.63000 -73.99969 6034 ft 307 kts 27°
2026-05-07 04:37 40.64799 -73.98453 6037 ft 307 kts 27°
2026-05-07 04:38 40.66611 -73.96932 6037 ft 308 kts 27°
2026-05-07 04:38 40.68428 -73.95427 5958 ft 308 kts 26°
2026-05-07 04:38 40.70243 -73.93934 5832 ft 306 kts 27°
2026-05-07 04:38 40.72048 -73.92449 5700 ft 305 kts 26°
2026-05-07 04:39 40.73821 -73.90989 5562 ft 304 kts 27°
2026-05-07 04:39 40.75619 -73.89506 5433 ft 303 kts 27°
2026-05-07 04:39 40.77403 -73.88032 5309 ft 302 kts 27°
2026-05-07 04:39 40.79183 -73.86559 5190 ft 301 kts 27°
2026-05-07 04:40 40.80959 -73.85089 5067 ft 300 kts 27°
2026-05-07 04:40 40.82726 -73.83624 4829 ft 300 kts 27°
2026-05-07 04:40 40.84479 -73.82171 4474 ft 298 kts 27°
2026-05-07 04:40 40.86212 -73.80730 4213 ft 291 kts 28°
2026-05-07 04:41 40.87917 -73.79310 3910 ft 285 kts 28°
2026-05-07 04:41 40.89562 -73.77938 3767 ft 274 kts 28°
2026-05-07 04:41 40.91147 -73.76616 3644 ft 262 kts 28°
2026-05-07 04:41 40.92661 -73.75353 3536 ft 252 kts 28°
2026-05-07 04:42 40.94073 -73.74083 3434 ft 248 kts 40°
2026-05-07 04:42 40.94911 -73.72112 3260 ft 251 kts 81°
2026-05-07 04:42 40.94664 -73.69872 3109 ft 248 kts 121°
2026-05-07 04:42 40.93456 -73.68343 2953 ft 240 kts 162°
2026-05-07 04:43 40.91880 -73.68174 2843 ft 228 kts 203°
2026-05-07 04:43 40.90668 -73.69351 2751 ft 209 kts 242°
2026-05-07 04:43 40.90012 -73.71038 2618 ft 205 kts 246°
2026-05-07 04:43 40.89358 -73.72681 2498 ft 203 kts 246°
2026-05-07 04:44 40.88698 -73.74331 2371 ft 203 kts 246°
2026-05-07 04:44 40.88038 -73.75979 2254 ft 198 kts 246°
2026-05-07 04:44 40.87424 -73.77502 2167 ft 176 kts 246°
2026-05-07 04:44 40.86877 -73.78861 2003 ft 163 kts 248°
2026-05-07 04:45 40.86267 -73.80094 1867 ft 158 kts 236°
2026-05-07 04:45 40.85468 -73.81094 1660 ft 158 kts 226°
2026-05-07 04:45 40.84583 -73.81968 1450 ft 158 kts 221°
2026-05-07 04:45 40.83673 -73.82779 1248 ft 157 kts 219°
2026-05-07 04:46 40.82757 -73.83562 1017 ft 156 kts 218°
2026-05-07 04:46 40.81846 -73.84320 798 ft 154 kts 215°
2026-05-07 04:46 40.80918 -73.85078 566 ft 155 kts 215°
2026-05-07 04:46 40.80027 -73.85834 331 ft 152 kts 217°
2026-05-07 04:47 40.79125 -73.86592 192 ft 156 kts 216°
2026-05-07 04:47 40.78207 -73.87342 36 ft 154 kts 215°
2026-05-07 04:47 40.77393 -73.88027 20 ft 109 kts 210°
2026-05-07 04:47 40.77102 -73.88258 20 ft 20 kts 211°
2026-05-07 04:48 40.77069 -73.88314 21 ft 5 kts 282°
2026-05-07 04:48 40.77092 -73.88372 21 ft 8 kts 315°
2026-05-07 04:48 40.77118 -73.88385 21 ft 3 kts 358°
2026-05-07 04:48 40.77178 -73.88360 20 ft 21 kts 21°
2026-05-07 04:49 40.77279 -73.88271 22 ft 8 kts 33°
2026-05-07 04:49 40.77287 -73.88226 20 ft 8 kts 93°
2026-05-07 04:49 40.77295 -73.88089 20 ft 16 kts 84°
2026-05-07 04:49 40.77297 -73.88005 20 ft 7 kts 104°
2026-05-07 04:50 40.77299 -73.87952 20 ft 5 kts 56°
2026-05-07 04:50 40.77325 -73.87926 20 ft 7 kts 34°
2026-05-07 04:50 40.77445 -73.87826 21 ft 22 kts 31°
2026-05-07 04:50 40.77574 -73.87723 21 ft 16 kts 29°
2026-05-07 04:51 40.77609 -73.87626 21 ft 11 kts 81°
2026-05-07 04:51 40.77660 -73.87565 21 ft 10 kts 32°
2026-05-07 04:51 40.77720 -73.87511 21 ft 15 kts 45°
2026-05-07 04:51 40.77774 -73.87343 20 ft 18 kts 86°
2026-05-07 04:52 40.77753 -73.87223 22 ft 13 kts 118°
2026-05-07 04:52 40.77706 -73.87130 20 ft 11 kts 124°
2026-05-07 04:52 40.77663 -73.87103 20 ft 5 kts 189°
2026-05-07 04:52 40.77640 -73.87119 20 ft 2 kts 213°
2026-05-07 04:53 40.77636 -73.87122 20 ft 1 kts 213°
2026-05-07 04:53 40.77629 -73.87128 20 ft 0 kts 213°